SCP
0 0 0 0 0 0 0 0 0 1 1 1 1 0 0 0 0 0 0 0 0 0 0 0 0 0 0 0 0 0 0 0 0 0 0 0 0 0 0 0 0 0 0
0 0 0 0 0 0 0 0 0 1 1 1 1 0 0 0 0 0 0 0 0 0 0 0 0 0 0 0 0 0 0 0 0 0 0 0 0 0 0 0 0 0 0
0 0 0 0 0 0 0 0 0 0 1 1 0 0 0 0 0 0 0 0 0 0 0 0 0 0 0 0 0 0 0 0 0 0 0 0 0 0 0 0 0 0 0
0 0 0 0 0 0 0 0 0 0 0 0 0 0 0 0 0 0 0 0 0 0 0 0 0 0 0 0 0 0 0 0 0 0 0 0 0 0 0 0 0 0 0
0 0 0 0 0 0 0 0 0 0 0 0 0 0 0 0 0 0 0 0 0 0 0 0 0 0 0 0 0 0 0 0 0 0 0 0 0 0 0 0 0 0 0
0 0 0 0 0 0 0 0 0 0 0 0 0 0 0 0 0 0 0 0 0 0 0 0 0 0 0 0 0 0 0 0 0 0 0 0 0 0 0 0 0 0 0
0 0 0 0 0 0 0 0 0 0 0 0 0 0 0 0 0 0 0 0 0 0 0 0 0 0 0 0 0 0 0 0 0 0 0 0 0 0 0 0 0 0 0
0 0 0 0 0 0 0 0 0 0 0 0 0 0 0 0 0 0 0 0 0 0 0 0 0 0 0 0 0 0 0 0 0 0 0 0 0 0 0 0 0 0 0
0 0 0 0 0 0 0 0 0 0 0 0 0 0 0 0 0 0 0 0 0 0 0 0 0 0 0 0 0 0 0 0 0 0 0 0 0 0 0 0 0 0 0
0 0 0 0 0 0 0 0 0 0 0 0 0 0 0 0 0 0 0 0 0 0 0 0 0 0 0 0 0 0 0 0 0 0 0 0 0 0 0 0 0 0 0
0 0 0 0 0 0 0 0 0 0 0 0 0 0 0 0 0 0 0 0 0 0 0 0 0 0 0 0 0 0 0 0 0 0 0 0 0 0 0 0 0 0 0
0 0 0 0 0 0 0 0 0 0 0 0 0 0 0 0 0 0 0 0 0 0 0 0 0 0 0 0 0 0 0 0 0 0 0 0 0 0 0 0 0 0 0
0 0 0 0 0 0 0 0 0 0 0 0 0 0 0 0 0 0 0 0 0 0 0 0 0 0 0 0 0 0 0 0 0 0 0 0 0 0 0 0 0 0 0
0 0 0 0 0 0 0 0 0 0 0 0 0 0 0 0 0 0 0 0 0 0 0 0 0 0 0 0 0 0 0 0 0 0 0 0 0 0 0 0 0 0 0
0 0 0 0 0 0 0 0 0 0 0 0 0 0 0 0 0 0 0 0 0 0 0 0 0 0 0 0 0 0 0 0 0 0 0 0 0 0 0 0 0 0 0
0 0 0 0 0 0 0 0 0 0 0 0 0 0 0 0 0 0 0 0 0 0 0 0 0 0 0 0 0 0 0 0 0 0 0 0 0 0 0 0 0 0 0
0 0 0 0 0 0 0 0 0 0 0 0 0 0 0 0 0 0 0 0 0 0 0 0 0 0 0 0 0 0 0 0 0 0 0 0 0 0 0 0 0 0 0
0 0 0 0 0 0 0 0 0 0 0 0 0 0 0 0 0 0 0 0 0 0 0 0 0 0 0 0 0 0 0 0 0 0 0 0 0 0 0 0 0 0 0
0 0 0 0 0 0 0 0 0 0 0 0 0 0 0 0 0 0 0 0 0 0 0 0 0 0 0 0 0 0 0 0 0 0 0 0 0 0 0 0 0 0 0
0 0 0 0 0 0 0 0 0 0 0 0 0 0 0 0 0 0 0 0 0 0 0 0 0 0 0 0 0 0 0 0 0 0 0 0 0 0 0 0 0 0 0
0 0 0 0 0 0 0 0 0 0 0 0 0 0 0 0 0 0 0 0 0 0 0 0 0 0 0 0 0 0 0 0 0 0 0 0 0 0 0 0 0 0 0
0 0 0 0 0 0 0 0 0 0 0 0 0 0 0 0 0 0 0 0 0 0 0 0 0 0 0 0 0 0 0 0 0 0 0 0 0 0 0 0 0 0 0
0 0 0 0 0 0 0 0 0 0 0 0 0 0 0 0 0 0 0 0 0 0 0 0 0 0 0 0 0 0 0 0 0 0 0 0 0 0 0 0 0 0 0
0 0 0 0 0 0 0 0 0 0 0 0 0 0 0 0 0 0 0 0 0 0 0 0 0 0 0 0 0 0 0 0 0 0 0 0 0 0 0 0 0 0 0
0 0 0 0 0 0 0 0 0 0 0 0 0 0 0 0 0 0 0 0 0 0 0 0 0 0 0 0 0 0 0 0 0 0 0 0 0 0 0 0 0 0 0
0 0 0 0 0 0 0 0 0 0 0 0 0 0 0 0 0 0 0 0 0 0 0 0 0 0 0 0 0 0 0 0 0 0 0 0 0 0 0 0 0 0 0
Wind_Speed
13 9 11 12 11 12 13 15 15 14 11 8 9 9 10 8 7 8 11 13 13 14 13 9 11 11 11 12 11 7 9 5 6 5 2 1 1 1 2 2 2 3 3
10 9 9 9 12 13 14 14 15 14 13 12 9 6 5 4 5 5 8 12 13 14 12 12 11 12 10 11 12 10 8 5 8 6 5 3 3 5 5 4 4 5 3
13 10 8 9 10 12 14 14 15 15 13 11 5 3 2 2 4 6 8 10 11 13 13 14 12 12 12 13 14 15 14 10 10 6 7 7 9 4 4 6 6 6 5
8 7 6 7 9 12 10 11 11 11 11 10 9 10 9 10 10 6 5 6 8 10 12 13 14 14 12 13 14 16 12 12 12 6 5 3 5 6 5 3 5 8 9
4 5 5 6 6 6 6 7 7 8 9 10 11 11 11 9 4 4 5 6 6 8 10 11 13 13 13 14 15 15 14 11 11 9 5 3 2 3 5 5 5 7 9
1 2 2 2 2 0 2 4 6 6 7 9 10 11 12 9 7 6 6 6 5 7 9 10 11 12 12 13 14 16 17 15 13 10 8 8 7 8 6 5 5 7 7
2 2 3 3 3 1 1 2 4 5 6 7 9 10 10 10 11 9 8 7 6 7 10 10 11 11 12 12 13 15 15 17 15 15 12 10 8 5 7 6 4 4 3
2 2 2 2 2 1 0 2 3 4 5 6 7 7 8 7 7 9 8 9 8 8 9 11 11 11 11 12 12 13 14 14 16 17 15 11 9 7 6 7 7 4 4
2 2 3 2 2 2 1 2 3 3 4 5 5 6 7 7 8 7 7 7 7 6 8 10 11 11 11 12 12 12 14 13 15 15 15 13 10 7 6 5 7 8 8
3 3 3 2 2 2 2 1 3 4 4 4 5 5 6 7 7 6 8 8 7 7 8 10 11 11 11 11 12 11 11 14 14 12 15 15 10 8 8 8 7 7 8
2 3 4 3 3 2 2 2 2 3 3 4 5 5 6 6 6 7 8 8 7 8 9 10 11 11 12 11 12 12 11 14 14 13 15 16 13 11 10 9 9 9 7
3 3 4 4 4 4 3 3 3 4 4 4 4 6 6 5 7 8 8 7 8 8 9 9 10 11 11 11 12 13 12 13 14 15 15 16 12 15 11 10 12 11 9
4 4 4 4 4 5 5 4 4 5 4 4 5 6 6 7 8 9 8 7 8 8 8 9 10 11 11 11 12 12 12 13 13 13 15 15 14 15 12 12 12 10 8
4 5 5 5 5 5 5 5 6 5 5 5 5 7 8 8 8 7 7 7 7 8 9 9 10 10 10 10 10 10 11 11 11 11 11 12 14 15 14 12 12 9 9
4 5 5 5 6 6 6 6 6 6 5 5 6 8 8 7 7 7 7 7 7 8 8 8 9 8 8 8 10 10 10 10 10 9 9 10 12 14 12 10 10 11 10
5 5 5 6 7 7 7 7 7 7 6 6 7 7 7 6 7 7 7 7 7 7 7 8 9 9 8 12 16 12 9 9 10 10 9 8 9 12 16 17 16 16 13
4 5 5 5 6 6 6 7 8 8 7 7 7 7 6 7 7 7 6 7 7 6 7 8 8 9 11 15 15 15 10 9 9 9 7 6 6 8 8 13 16 16 19
4 5 5 6 5 5 6 6 7 7 7 8 8 7 7 8 7 6 7 7 5 6 6 7 7 8 9 13 14 13 10 8 8 8 8 7 6 7 8 7 8 8 10
3 4 4 5 6 6 6 7 7 6 7 7 8 8 8 8 8 8 7 6 5 5 5 4 6 7 7 10 12 11 5 6 7 6 6 7 6 10 13 9 8 8 6
3 3 4 4 5 6 6 7 7 7 8 8 9 8 7 8 8 8 7 5 4 5 4 4 4 5 5 8 10 10 4 5 4 4 5 7 9 11 14 9 9 9 7
4 4 4 4 5 5 5 6 7 8 8 8 9 8 7 7 7 6 5 4 4 3 3 4 3 3 4 6 9 10 4 4 4 4 4 4 11 13 14 12 8 10 8
4 4 4 5 4 4 4 7 8 7 7 8 9 8 7 6 5 5 4 3 3 3 3 2 3 2 2 3 6 8 8 6 4 4 3 4 10 12 13 10 10 12 9
5 4 5 6 5 3 3 7 8 7 8 8 8 8 7 5 4 4 4 3 2 2 2 2 2 2 1 3 5 5 7 6 3 3 6 7 10 11 9 10 10 8 5
5 4 5 6 7 5 4 5 7 7 7 8 8 7 6 5 4 3 2 2 2 2 2 2 2 2 1 1 1 1 1 2 3 3 4 7 8 6 4 4 6 4 4
4 4 5 7 8 6 6 5 6 6 7 8 7 6 5 5 3 2 2 2 2 2 2 2 1 1 2 2 2 1 1 1 3 4 2 2 2 2 2 2 3 3 4
5 5 5 6 7 7 7 6 5 5 7 7 6 5 4 3 2 2 1 2 1 2 1 1 0 1 2 2 1 2 3 4 8 5 3 2 2 2 2 2 2 2 2
Wind_Direction
245 237 225 217 211 207 204 203 202 201 191 189 195 200 207 202 202 203 199 196 194 192 191 186 182 182 182 181 172 158 153 145 140 113 94 22 356 242 219 206 193 187 174
261 250 234 216 208 207 206 205 204 199 197 201 200 199 195 197 206 202 203 201 198 194 193 189 186 187 185 179 176 162 159 162 173 148 140 181 252 246 218 209 207 205 199
247 251 240 225 214 212 208 206 205 201 199 193 170 154 150 165 195 210 211 207 202 197 195 194 189 190 189 187 184 180 173 176 191 191 165 167 203 203 215 216 209 202 204
248 252 249 238 222 220 212 208 203 198 193 183 181 183 197 211 215 209 207 203 204 202 199 196 194 193 195 194 191 191 189 179 186 205 224 193 148 164 192 226 217 209 210
248 260 265 253 242 225 208 203 195 194 187 187 192 196 210 218 206 191 199 203 205 209 205 201 199 199 200 200 196 196 197 196 193 189 176 172 156 165 164 195 202 212 217
19 351 335 340 318 249 182 180 184 193 186 190 195 202 211 208 200 201 205 207 208 213 214 209 206 205 206 205 202 200 203 206 206 201 191 178 175 186 182 181 192 207 207
48 9 11 18 20 40 133 163 177 194 190 193 203 208 212 206 210 208 208 207 210 215 216 213 215 213 212 209 205 206 208 210 211 210 212 214 207 174 175 173 170 192 189
14 354 350 359 353 360 121 173 191 206 199 202 211 213 212 211 220 216 212 213 217 216 210 213 220 220 215 213 210 212 213 213 217 219 218 219 219 199 188 177 162 165 198
15 354 348 346 326 309 265 220 212 222 221 218 218 219 216 217 222 219 217 222 221 212 207 211 218 222 220 218 215 219 217 215 217 221 221 223 222 210 204 187 184 182 198
15 356 342 331 323 305 279 248 230 235 237 229 224 225 223 222 223 220 224 226 223 213 208 212 217 221 222 221 221 225 221 220 220 219 223 224 223 215 205 204 208 209 214
360 342 337 337 333 327 306 284 268 260 257 246 240 240 238 230 227 230 232 229 226 216 215 213 216 220 221 220 225 229 224 225 226 222 222 225 221 220 215 209 209 212 208
7 353 348 351 349 337 327 313 294 279 270 261 253 250 248 241 238 240 239 230 229 223 219 215 217 220 220 220 224 230 228 229 229 226 224 225 221 222 219 214 214 214 209
15 8 5 355 342 335 333 323 311 298 292 279 267 265 260 251 248 248 245 235 231 229 223 218 220 221 220 220 224 230 231 232 233 229 226 225 220 223 220 216 215 212 205
19 14 2 353 348 344 337 329 321 316 313 301 281 272 266 260 259 259 252 243 236 233 229 225 224 222 220 220 223 228 234 237 239 236 233 228 222 223 219 217 215 203 195
18 8 356 344 341 341 338 334 324 324 321 307 288 277 278 276 272 266 260 253 243 238 233 229 228 223 221 221 221 225 232 237 242 241 238 235 230 226 219 214 206 195 194
9 359 351 346 341 337 332 330 327 326 322 305 291 289 290 286 277 271 265 258 251 244 234 230 228 226 226 228 225 223 228 233 238 244 242 238 231 228 223 220 209 198 192
359 348 340 332 328 329 329 326 322 323 323 312 305 303 299 291 284 280 272 262 256 248 240 236 229 232 234 233 232 228 226 231 235 238 239 237 227 220 220 221 215 210 208
330 326 326 323 321 321 322 318 316 317 315 312 311 311 308 300 295 286 274 267 258 248 245 241 234 236 240 238 237 233 229 234 236 233 230 231 223 211 205 202 202 200 205
299 300 305 305 311 317 320 319 316 316 313 310 310 310 306 301 298 290 283 275 265 257 246 242 233 236 245 242 241 235 229 234 235 230 223 218 216 215 208 200 197 193 196
288 292 298 302 308 313 319 316 314 315 312 310 307 305 299 293 290 287 286 280 264 259 252 249 238 237 245 247 243 236 227 231 231 224 217 216 214 213 207 199 192 190 180
285 288 292 293 296 305 311 305 306 304 305 307 305 302 298 292 288 289 285 282 275 269 259 257 254 245 245 256 250 240 221 217 219 219 214 214 217 215 211 201 194 193 173
291 292 289 289 291 299 302 299 298 303 309 307 303 301 299 297 294 292 294 288 275 269 267 266 273 270 266 257 261 251 236 220 213 217 201 207 215 214 211 205 198 194 176
284 284 284 292 295 294 289 291 299 312 310 305 300 299 299 295 290 285 286 290 275 262 265 260 267 282 294 291 279 271 250 227 212 198 194 200 211 210 209 207 198 184 171
285 287 293 294 297 300 290 281 297 307 301 296 296 295 294 294 292 285 272 265 264 266 272 271 272 284 295 295 300 286 268 220 197 176 186 195 205 202 186 187 191 174 170
294 293 289 289 294 304 298 298 304 308 297 289 286 287 283 280 285 283 270 262 248 224 235 247 247 259 279 274 252 189 177 164 156 137 129 142 157 179 157 158 161 160 166
311 307 299 295 298 302 300 303 307 304 293 290 286 284 281 274 264 262 320 43 56 63 63 110 140 299 305 308 264 189 164 153 150 131 136 146 153 158 160 162 157 158 172